Location: Gniazdowice
(50.2124°N, 20.2673°E)
Time: 15:52:49
(UTC+00:00)

Resurs 1-4 Rocket - Pass Details

Date: 23 May 2024
Orbit: 798 x 814 km, 98.7° (Epoch: 12 June)

Event Time Altitude Azimuth Distance (km) Brightness Sun altitude
Rises 00:24:20 0° 17° (NNE) 3,319 7.1 -15.2°
Reaches altitude 10° 00:26:43 10° 22° (NNE) 2,384 6.0 -15.0°
Maximum altitude 00:31:54 58° 101° (ESE) 935 2.5 -14.6°
Enters shadow 00:36:00 16° 177° (S) 1,968 3.6 -14.3°
